Weather in Uludag

Turkey     40°05′45″N   29°10′26″E
temp.,
°C
wind,
m/s
gust,
m/s
humid.,
%
clouds,
%
prec.,
mm/h
press.,
hPa
HPBL,
m
29 june, wed
wed2900:00+11nnw338810 0.0 101556
03:00+11nnw239781 0.0 1014130
06:00+12n129358 0.1 1014171
09:00+14nne237977 0.1 1014689
12:00+19nne335635 0.1 10131470
15:00+20nne445052 0.2 10121705
18:00+17nne347043 0.3 1013846
21:00+12ne229426 0.4 101440
30 june, thu
thu3000:00+11nne11920 0.0 101311
03:00+11nne22900 0.0 101313
06:00+10ne22920 0.0 101328
09:00+17ne22640 0.0 1013649
12:00+20nne33519 0.0 10131438
15:00+21nne44500 0.0 10121455
18:00+20nne44607 0.0 10121006
21:00+14ne22910 0.0 101334
1 july, fri
fri100:00+13ne22830 0.0 101416
03:00+13nne22830 0.0 101422
06:00+12ne33830 0.0 101438
09:00+19ne34560 0.0 1014636
12:00+22ne34450 0.0 10141299
15:00+23nne55440 0.0 10131277
18:00+20nne56490 0.0 1014870
21:00+14ne33840 0.0 101557
2 july, sat
sat200:00+14ne22730 0.0 101627
03:00+13ne22810 0.0 101626
06:00+12ne22850 0.0 101629
09:00+19ne33580 0.0 1016643
12:00+22ne34450 0.0 10161187
15:00+23nne44430 0.0 10151191
18:00+20nne45540 0.0 1015680
21:00+13ene33810 0.0 101759
3 july, sun
sun300:00+12ne33670 0.0 101838
03:00+11ene32690 0.0 101730
06:00+11ene32560 0.0 101729
09:00+18ne33340 0.0 1016400
12:00+21ne34290 0.0 1015914
15:00+22ne44320 0.0 10151007
18:00+19ne44400 0.0 1015586
21:00+13ene33570 0.0 101635